Temperature
16 16 16 16 16 16 16 16 15 16 16 15 15 15 15 15 15 15 15 15 15 15 15 14 14 14 14 14 14 14 14 14 14 14 13 13 13 13
16 16 16 16 16 15 15 15 15 15 15 15 15 14 14 14 14 14 14 14 14 14 14 14 14 14 14 14 14 13 13 13 13 13 13 13 13 13
16 16 16 16 16 15 15 15 15 15 15 15 14 14 14 14 14 14 14 13 13 13 13 13 13 13 13 13 13 13 13 13 13 13 13 13 12 12
16 16 16 16 16 15 15 15 15 14 14 14 14 14 13 13 13 13 13 13 13 13 13 13 13 13 13 13 13 13 13 13 12 12 12 12 12 12
15 15 15 15 15 15 15 14 14 14 14 14 14 13 13 13 13 13 12 12 12 12 12 12 12 12 12 12 12 12 12 12 12 12 12 12 12 12
15 15 15 15 15 15 14 14 14 14 14 14 13 13 13 13 12 12 12 12 12 12 12 12 12 12 12 12 12 12 11 11 11 11 11 11 11 11
15 15 15 15 15 14 14 14 14 14 14 13 13 13 12 12 12 12 12 12 11 11 11 11 11 11 11 11 11 11 11 11 11 11 11 11 11 10
15 14 14 14 14 14 14 14 14 13 13 13 13 12 12 12 12 12 12 11 11 11 11 11 11 11 10 10 11 11 10 10 10 10 10 10 10 10
14 14 13 14 14 14 14 14 13 13 13 13 12 12 12 12 12 11 11 11 11 11 11 11 10 10 10 10 10 10 10 10 10 10 9 9 9 9
14 14 14 14 13 13 13 13 13 13 13 12 12 12 12 12 11 11 11 11 11 10 10 10 10 10 10 10 10 10 10 10 10 9 9 9 9 9
13 13 13 13 13 13 13 12 12 12 12 12 12 12 12 11 11 11 11 11 11 10 10 10 10 10 10 10 10 10 9 9 9 9 9 9 9 9
13 13 13 13 13 13 12 12 12 12 11 11 11 11 11 11 11 11 10 10 10 10 10 10 10 10 9 9 9 9 9 9 9 9 9 9 8 8
13 13 13 13 13 12 12 12 12 11 11 11 11 11 11 10 10 10 10 10 10 10 10 9 9 9 9 9 9 9 9 9 9 8 8 8 8 8
12 12 12 12 12 12 12 12 11 11 11 11 11 11 10 10 10 10 10 10 9 9 9 9 9 9 9 9 9 9 9 8 8 8 8 8 8 8
12 12 12 12 12 11 11 11 11 11 11 11 11 10 10 10 10 10 10 9 9 9 9 9 9 9 9 9 9 9 9 8 8 8 8 8 8 7
12 12 12 11 11 11 11 11 10 10 10 10 10 10 10 10 10 10 10 9 9 9 9 9 8 8 8 8 8 9 8 8 8 8 7 7 7 7
11 11 11 11 11 10 10 10 10 10 10 10 10 10 10 10 9 9 9 9 9 9 9 9 8 8 8 8 8 8 8 8 8 8 7 7 7 7
11 11 10 10 10 10 10 10 10 10 9 9 9 9 9 9 9 9 9 9 9 9 9 9 8 8 8 8 8 8 8 8 8 7 7 7 7 7
10 10 10 10 10 10 10 10 9 9 9 9 9 9 9 9 9 9 9 9 9 9 8 8 8 8 8 8 8 8 7 7 7 7 7 7 7 7
10 10 10 10 9 9 9 9 9 9 9 9 9 9 9 9 9 9 8 8 8 8 8 8 8 8 8 8 8 8 7 7 7 7 7 7 7 7
10 9 9 9 9 9 9 8 8 8 8 8 8 8 8 8 8 8 8 8 8 8 8 8 8 8 7 7 8 8 8 7 7 7 7 7 7 7
9 9 9 9 8 8 8 8 8 8 8 8 8 8 8 8 8 8 8 8 8 8 8 8 7 7 7 7 8 8 8 7 7 7 7 6 6 6
8 8 8 8 8 8 8 8 8 8 7 7 7 7 7 7 7 7 7 7 7 8 8 8 7 7 7 7 7 8 7 7 7 7 7 6 6 6
Wind_Speed
4 4 5 4 5 5 5 5 5 5 4 3 2 2 1 1 1 0 0 3 2 2 2 2 2 2 2 2 2 3 3 4 5 5 6 7 8 8
3 3 4 4 4 5 5 5 6 6 5 2 2 2 1 1 2 1 2 4 4 4 4 3 3 3 2 1 1 2 2 3 4 4 4 4 5 5
3 4 4 5 4 4 5 5 5 5 5 4 2 1 1 1 2 2 2 2 3 5 5 4 3 3 3 2 2 2 2 3 3 4 4 3 3 4
4 4 4 3 4 4 4 5 5 5 5 4 3 2 2 2 2 2 2 2 2 5 5 4 4 3 3 3 3 3 3 4 3 3 3 3 3 3
4 3 3 3 4 3 4 4 4 4 4 4 3 2 2 2 2 2 2 1 2 4 6 5 5 4 3 3 4 4 4 4 3 3 3 3 2 2
3 3 3 3 4 4 4 4 4 4 3 4 3 3 3 3 3 3 2 2 1 2 3 3 5 5 5 4 4 4 4 3 3 3 3 2 2 3
2 2 2 1 2 3 3 3 3 4 4 4 4 3 3 3 3 3 3 2 1 1 1 2 3 3 4 5 5 4 3 3 3 3 3 3 3 3
2 1 1 1 1 1 1 2 3 4 4 3 4 4 4 4 3 3 3 2 1 1 1 1 1 1 2 3 4 4 3 3 3 3 3 3 2 2
1 2 2 1 1 1 2 3 2 1 2 3 3 3 3 3 4 4 3 3 2 1 2 1 1 1 1 3 5 5 4 4 3 3 3 3 3 3
1 2 2 1 1 2 1 1 1 1 2 2 2 2 2 1 3 4 3 2 1 1 1 2 1 1 1 2 6 7 6 6 5 5 4 4 4 4
1 1 2 1 1 2 1 1 1 1 2 3 2 2 1 3 3 2 2 2 2 1 1 2 2 2 2 2 5 8 7 7 6 6 6 5 6 7
2 2 1 1 1 1 1 2 2 1 2 3 3 2 2 3 5 3 3 3 2 2 1 2 2 2 2 2 2 5 6 7 9 8 8 7 6 5
2 2 2 4 2 1 2 1 1 2 2 2 2 2 2 2 2 2 2 3 3 2 1 2 3 3 3 2 2 3 3 4 5 7 9 9 8 6
2 1 2 4 4 2 1 1 1 3 2 2 2 2 1 1 1 2 2 3 3 3 1 2 3 3 4 3 2 2 3 4 4 4 4 8 10 10
1 2 2 3 4 4 4 3 3 2 2 2 2 2 1 1 2 2 2 3 3 3 3 3 4 3 4 4 3 3 3 3 4 4 4 5 5 6
3 4 6 5 4 2 3 4 3 1 2 2 2 1 2 2 2 2 2 2 2 2 3 4 4 4 5 5 4 4 4 3 4 4 5 5 6 6
3 3 3 3 3 3 3 2 2 2 2 2 2 2 3 3 3 3 3 3 4 3 3 3 5 5 5 5 4 4 5 5 4 4 5 6 5 6
3 3 3 3 3 3 3 3 3 3 3 3 4 4 4 4 4 4 4 5 5 4 4 3 3 3 4 4 4 6 6 5 5 4 6 6 6 6
4 3 3 3 3 3 3 3 3 3 3 4 4 4 4 5 5 5 5 5 5 5 5 4 4 4 6 6 5 7 6 6 6 5 5 6 7 6
4 3 3 3 3 3 3 3 3 3 3 4 5 5 5 5 6 6 6 6 6 6 6 5 5 5 7 8 7 5 9 7 6 6 6 6 6 4
3 3 3 3 3 3 3 3 4 3 4 4 5 5 5 6 6 6 7 7 8 7 7 7 5 6 7 7 7 6 4 9 7 6 6 6 6 6
3 3 3 3 3 3 3 4 4 4 5 5 5 5 5 6 7 7 7 7 7 7 8 6 5 5 7 8 8 7 6 4 8 11 8 7 6 6
2 2 2 3 3 3 3 4 5 4 4 4 4 5 5 6 6 7 7 7 7 7 7 7 5 6 7 8 8 7 7 6 5 5 6 10 11 10
Wind_Direction
260 255 261 264 260 257 255 253 259 266 264 246 237 238 236 230 100 131 86 105 128 145 151 155 159 166 185 221 241 243 224 226 222 217 224 228 232 231
261 268 266 266 261 255 255 255 257 259 262 260 250 242 183 180 124 123 101 113 117 126 122 116 115 113 117 147 191 191 199 199 194 205 208 211 211 213
255 259 262 270 266 260 254 250 250 249 252 254 248 206 200 214 153 157 160 153 122 126 124 115 110 103 94 93 117 128 146 161 168 176 182 186 197 206
259 265 269 266 262 262 260 253 250 246 242 244 240 227 219 201 175 188 160 144 123 122 128 129 125 109 97 99 105 112 119 123 131 147 161 167 176 188
262 263 265 266 267 266 262 257 252 249 241 232 229 216 205 181 179 179 155 160 156 139 143 147 144 136 130 124 119 116 114 114 117 122 133 144 154 166
257 259 262 266 272 269 258 254 252 250 234 226 221 209 193 180 192 190 184 185 193 153 127 142 157 166 160 144 133 127 121 122 128 131 134 137 139 142
249 256 263 290 316 290 274 262 248 243 230 223 221 212 199 191 208 206 206 194 200 185 160 175 172 162 152 151 146 137 140 150 160 160 152 149 145 145
263 259 234 230 250 227 277 283 269 243 239 229 225 223 218 212 209 210 201 202 215 177 229 234 206 173 138 127 130 146 160 171 177 176 171 167 166 171
274 275 275 291 256 274 216 216 228 231 248 246 243 242 227 215 209 206 212 224 249 196 218 239 216 204 172 132 146 168 181 191 196 192 188 190 197 205
233 254 260 279 338 306 255 210 195 182 217 233 235 254 251 218 212 218 221 218 214 183 250 268 247 266 223 158 161 177 190 199 206 211 212 215 221 225
235 268 267 217 28 313 220 173 148 135 129 102 71 47 76 160 183 192 187 198 227 214 224 269 273 275 251 211 174 183 196 203 208 211 215 222 232 233
195 185 91 80 78 324 198 180 175 172 141 123 124 131 141 155 184 213 213 219 241 232 184 248 258 262 246 229 209 197 206 204 205 208 212 217 229 241
210 192 126 125 137 187 255 215 229 238 181 158 146 143 147 156 182 208 245 255 260 268 188 213 246 250 258 257 234 221 219 215 210 212 212 211 220 239
221 189 117 134 153 178 204 112 241 246 194 171 167 163 169 179 184 200 228 267 291 294 255 233 257 258 261 259 254 234 232 229 229 234 229 211 216 224
187 93 116 161 180 179 164 190 216 210 205 201 199 208 212 195 198 196 204 220 234 229 215 229 255 258 260 262 260 250 243 238 233 243 244 236 230 228
202 173 182 193 205 186 182 196 213 216 238 235 234 221 212 197 202 210 217 216 230 219 204 222 238 253 258 269 275 268 255 245 239 243 249 251 240 235
198 193 190 179 187 186 193 202 215 215 227 246 249 238 226 227 226 219 229 237 242 247 234 224 228 235 254 273 272 275 274 266 254 245 249 252 247 242
216 203 204 207 211 207 208 211 219 226 235 245 250 251 247 244 242 239 241 243 247 250 250 241 240 245 243 244 253 271 275 274 268 247 249 254 254 246
216 220 222 224 229 233 235 236 234 230 240 247 249 250 251 252 250 247 245 249 254 255 251 241 238 248 260 266 238 221 262 273 270 261 254 255 260 261
230 237 238 239 241 245 248 250 252 244 240 250 253 253 254 256 255 252 248 251 256 257 254 248 246 252 264 276 277 247 219 250 264 263 261 258 259 254
225 236 244 246 251 257 261 260 256 254 256 258 260 263 261 259 258 258 255 246 250 255 256 256 258 252 263 271 270 261 239 217 241 261 264 260 257 252
239 243 253 261 261 264 261 260 256 254 256 257 267 272 270 266 265 264 262 259 255 256 261 265 259 253 258 263 266 268 264 241 225 232 243 257 272 268
233 244 250 256 261 263 263 260 260 264 267 270 271 270 271 269 267 265 263 262 264 264 264 263 262 256 260 264 267 271 271 267 256 239 230 219 228 242
Height
1549 1548 1548 1548 1548 1548 1548 1548 1549 1548 1547 1547 1547 1546 1546 1545 1545 1544 1544 1543 1543 1542 1542 1542 1542 1542 1542 1542 1542 1542 1542 1542 1543 1543 1543 1544 1544 1544
1546 1546 1545 1545 1544 1544 1544 1544 1545 1545 1545 1544 1544 1544 1543 1542 1542 1541 1541 1540 1539 1539 1539 1539 1539 1538 1538 1538 1538 1538 1538 1538 1538 1539 1539 1539 1539 1540
1544 1543 1542 1541 1541 1541 1541 1541 1541 1541 1541 1541 1541 1541 1540 1539 1539 1539 1538 1538 1537 1536 1536 1536 1536 1535 1535 1535 1535 1534 1534 1534 1535 1535 1535 1535 1535 1536
1541 1541 1540 1539 1538 1538 1538 1537 1538 1538 1538 1538 1538 1538 1537 1537 1536 1536 1536 1536 1535 1534 1534 1533 1533 1533 1532 1532 1532 1532 1531 1531 1531 1531 1532 1532 1532 1532
1539 1538 1537 1536 1535 1535 1534 1534 1534 1535 1535 1535 1535 1535 1535 1535 1534 1534 1534 1533 1533 1533 1532 1531 1531 1530 1530 1529 1529 1529 1528 1528 1528 1528 1529 1529 1529 1529
1536 1535 1534 1534 1533 1532 1532 1531 1531 1531 1532 1532 1532 1532 1532 1532 1532 1532 1531 1531 1531 1531 1530 1530 1529 1528 1528 1527 1526 1526 1526 1526 1526 1526 1526 1526 1526 1526
1534 1533 1532 1531 1530 1530 1529 1529 1529 1528 1529 1529 1529 1529 1529 1529 1529 1529 1529 1529 1529 1529 1528 1528 1528 1527 1526 1525 1524 1524 1524 1524 1523 1523 1523 1523 1523 1523
1531 1530 1530 1529 1528 1527 1527 1526 1526 1526 1526 1526 1526 1526 1526 1527 1527 1527 1527 1527 1527 1527 1527 1527 1526 1526 1524 1523 1522 1522 1522 1521 1521 1521 1521 1520 1520 1520
1528 1528 1527 1526 1526 1525 1524 1523 1523 1523 1523 1523 1524 1523 1524 1524 1524 1524 1524 1525 1525 1525 1525 1524 1525 1524 1523 1522 1521 1520 1520 1519 1519 1519 1519 1519 1518 1518
1525 1524 1524 1523 1523 1523 1522 1522 1521 1521 1521 1521 1521 1521 1521 1521 1521 1522 1522 1522 1522 1522 1522 1523 1522 1522 1521 1520 1519 1518 1518 1517 1517 1517 1516 1516 1516 1516
1522 1522 1521 1521 1520 1520 1520 1520 1520 1519 1519 1519 1519 1519 1519 1519 1519 1520 1520 1521 1521 1521 1520 1521 1520 1520 1519 1519 1518 1517 1516 1516 1515 1515 1515 1514 1514 1513
1520 1520 1519 1518 1518 1518 1518 1518 1518 1518 1518 1518 1518 1517 1517 1517 1518 1518 1519 1519 1519 1519 1518 1518 1518 1518 1518 1517 1516 1515 1514 1514 1514 1513 1513 1512 1512 1511
1519 1518 1517 1516 1516 1516 1516 1516 1516 1517 1517 1517 1517 1517 1517 1516 1516 1517 1517 1517 1518 1517 1517 1516 1516 1516 1516 1515 1514 1513 1513 1512 1512 1511 1510 1510 1509 1508
1516 1516 1515 1514 1514 1514 1514 1514 1515 1515 1516 1516 1516 1516 1516 1516 1515 1515 1515 1515 1515 1515 1514 1513 1513 1513 1513 1512 1512 1511 1510 1510 1509 1509 1508 1507 1506 1506
1514 1513 1513 1512 1512 1512 1512 1512 1513 1514 1515 1515 1515 1514 1514 1514 1514 1513 1513 1513 1512 1512 1512 1511 1511 1511 1511 1510 1509 1508 1508 1507 1506 1506 1505 1504 1503 1503
1512 1511 1511 1511 1511 1511 1511 1511 1512 1512 1513 1513 1513 1513 1513 1512 1512 1511 1511 1511 1511 1510 1509 1508 1508 1508 1508 1507 1507 1506 1505 1504 1503 1502 1502 1501 1500 1500
1510 1510 1510 1510 1509 1509 1510 1510 1510 1510 1510 1511 1511 1511 1510 1510 1510 1509 1509 1509 1508 1508 1507 1506 1506 1505 1505 1505 1504 1503 1502 1501 1500 1499 1498 1497 1497 1496
1508 1508 1508 1508 1508 1508 1508 1508 1508 1508 1508 1509 1509 1508 1508 1508 1507 1507 1507 1506 1505 1505 1504 1504 1503 1503 1502 1501 1501 1500 1499 1498 1497 1495 1494 1494 1493 1493
1505 1506 1506 1506 1505 1506 1506 1506 1506 1505 1505 1506 1506 1505 1505 1504 1504 1504 1503 1503 1502 1502 1501 1501 1500 1499 1498 1497 1496 1495 1495 1493 1492 1491 1490 1490 1489 1489
1503 1503 1503 1504 1503 1503 1503 1503 1503 1503 1503 1503 1502 1502 1501 1501 1501 1500 1500 1499 1499 1498 1498 1497 1496 1495 1495 1494 1493 1491 1490 1489 1488 1487 1486 1485 1485 1484
1500 1500 1500 1500 1500 1500 1500 1500 1500 1500 1499 1499 1498 1498 1497 1497 1496 1496 1496 1495 1494 1494 1493 1493 1492 1491 1491 1490 1489 1487 1486 1485 1484 1483 1483 1482 1481 1480
1496 1496 1497 1497 1497 1497 1496 1496 1496 1496 1495 1495 1495 1494 1494 1493 1492 1492 1491 1491 1490 1489 1489 1488 1488 1487 1487 1486 1484 1483 1482 1481 1480 1478 1478 1478 1477 1476
1492 1493 1493 1493 1493 1492 1492 1492 1492 1492 1491 1491 1490 1490 1489 1489 1488 1488 1487 1486 1486 1485 1485 1484 1484 1483 1482 1481 1480 1479 1478 1477 1476 1475 1474 1472 1472 1472